Home   Weather   Rendsburg   Past weeks

Flag for Germany Past Weather in Rendsburg, Schleswig-Holstein, Germany — Yesterday and Last 2 Weeks

55 °F

Passing clouds.

Feels Like: 53 °F
Forecast: 49 / 57 °F
Wind: 10 mph from Southwest

Location: Hohn

Current Time: Oct 27, 2016 at 9:06:53 PM

Latest Report: Oct 27, 2016 at 8:20 PM

Visibility: 4 mi

Pressure: 30.33 "Hg

Humidity: 88%

Dew Point: 52 °F

Location of RendsburgLocation

Past Weather in Rendsburg — Graph


Rendsburg Temperature Yesterday

Maximum temperature yesterday: 46 °F (at 3:20 PM)
Minimum temperature yesterday: 30 °F (at 12:20 AM)
Average temperature yesterday: 39 °F

High & Low Weather Summary for the Past Weeks

High59 °F (Oct 27, 12:20 PM)100% (Oct 15, 8:20 PM)30.39 "Hg (Oct 15, 8:20 PM)
Low30 °F (Oct 26, 12:20 AM)66% (Oct 13, 8:20 PM)29.86 "Hg (Oct 15, 4:20 AM)
Average46 °F91%30.08 "Hg
* Reported Oct 12 7:20 PM — Oct 27 7:20 PM, Rendsburg, Weather by CustomWeather, © 2016

Note: Actual official high and low records may vary slightly from our data, if they occured in-between our weather recording intervals... More about our weather records


Rendsburg Weather History for the Previous 24 Hours

Scroll right to see more
Time TempWeatherWind HumidityBarometerVisibility
7:20 PM
Thu, Oct 27
55 °FPassing clouds.10 mph88%30.33 "Hg4 mi
6:20 PM55 °FPassing clouds.10 mph88%30.33 "Hg4 mi
5:56 PM54 °FPassing clouds.9 mph88%30.33 "Hg5 mi
5:20 PM55 °FBroken clouds.12 mph88%30.33 "Hg6 mi
4:20 PM55 °FPartly sunny.10 mph88%30.33 "Hg4 mi
3:20 PM55 °FPartly sunny.12 mph88%30.33 "Hg4 mi
2:20 PM55 °FDrizzle. Broken clouds.10 mph88%30.33 "Hg4 mi
1:20 PM57 °FPartly sunny.10 mph72%30.36 "HgN/A
12:20 PM59 °FScattered clouds.9 mph77%30.33 "HgN/A
11:46 AM57 °FScattered clouds.8 mph88%30.33 "HgN/A
11:20 AM55 °FFog.7 mph94%30.33 "Hg2 mi
10:20 AM55 °FFog.8 mph94%30.33 "Hg2 mi
9:52 AM54 °FFog.7 mph94%30.33 "Hg2 mi
9:20 AM54 °FFog.7 mph94%30.30 "Hg1 mi
8:20 AM52 °FFog.7 mph100%30.30 "Hg1 mi
7:20 AM52 °FFog.7 mph100%30.30 "Hg1 mi
6:20 AM52 °FFog.7 mph94%30.27 "Hg1 mi
5:20 AM52 °FFog.12 mph94%30.27 "Hg2 mi
4:20 AM48 °FFog.5 mph100%30.27 "Hg2 mi
3:20 AM48 °FFog.8 mph94%30.27 "Hg2 mi
2:20 AM48 °FDrizzle. Fog.8 mph94%30.27 "Hg2 mi
1:20 AM46 °FFog.8 mph93%30.27 "Hg2 mi
12:20 AM46 °FFog.8 mph87%30.30 "Hg2 mi
11:20 PM
Wed, Oct 26
46 °FFog.7 mph87%30.30 "Hg2 mi
10:20 PM45 °FFog.6 mph87%30.30 "Hg2 mi
9:58 PM45 °FFog.6 mph93%30.33 "Hg3 mi
9:20 PM45 °FFog.6 mph93%30.33 "Hg3 mi
Weather by CustomWeather, © 2016

See weather overviewHow to use our weather pages